Location: Adavinekkalam
(16.6301°N, 80.7229°E)
Time: 11:09:59
(UTC+00:00)

Centaur AC-125 - Pass Details

Date: 15 May 2026
Orbit: 336 x 23422 km, 26.6° (Epoch: 5 June)

Event Time Altitude Azimuth Distance (km) Brightness Sun altitude
Rises 23:33:24 0° 292° (WNW) 3,443 5.9 -8.1°
Reaches altitude 10° 23:37:33 10° 322° (NW) 1,557 4.5 -7.2°
Maximum altitude 23:39:02 13° 354° (N) 1,196 4.3 -6.9°
Drops below altitude 10° 23:40:12 10° 26° (NNE) 1,255 5.0 -6.6°
Sets 23:42:47 0° 64° (ENE) 2,197 8.1 -6.0°
